Location: Newark
(39.5667°N, 8.9833°E)
Time: 00:49:52
(UTC+00:00)

LightSail 2 - Pass Details

Date: 23 September 2019
Orbit: 707 x 722 km, 24.0° (Epoch: 19 October)

Event Time Altitude Azimuth Distance (km) Brightness Sun altitude
Exits shadow 04:34:29 - 225° (SW) 2,785 7.7 -8.1°
Reaches altitude 10° 04:37:11 10° 203° (SSW) 2,161 7.4 -7.6°
Maximum altitude 04:39:30 13° 176° (S) 1,956 7.4 -7.1°
Drops below altitude 10° 04:41:49 10° 149° (SSE) 2,162 8.0 -6.7°
Sets 04:45:32 0° 122° (ESE) 3,082 9.4 -6.0°
